Theta_e
312 312 313 306 311 307 311 313 312 314 316 314 315 316 317 315 319 317 316 312 314 322 331 332 334 348 347 342 346 345 342 342 342 342 341 339 340 338 338 340 340 336 339 340 340 339 340 338 337
311 313 309 302 306 307 307 307 313 313 313 309 312 313 312 315 312 315 315 309 311 315 322 332 336 347 347 342 344 346 342 341 341 341 342 342 340 339 338 340 339 336 339 339 341 340 340 338 337
313 314 308 307 305 305 304 304 307 308 309 309 310 309 311 314 308 311 307 307 309 311 317 330 337 345 346 344 344 345 344 341 341 340 343 342 341 340 339 339 339 335 338 340 341 340 339 335 332
314 310 307 308 307 305 304 302 304 306 306 305 307 310 306 308 307 304 306 307 308 309 314 331 339 343 345 345 344 345 344 341 341 341 343 344 342 341 340 339 338 337 339 340 340 339 337 334 332
310 305 304 310 308 306 303 303 303 304 304 303 306 308 307 304 305 305 304 305 306 307 311 330 340 343 344 345 343 343 343 341 340 342 345 346 344 343 340 339 338 337 339 340 340 339 340 334 332
309 306 308 304 303 304 303 303 303 303 303 303 303 303 305 303 302 301 303 305 304 305 306 320 338 340 343 344 345 343 342 341 339 340 343 346 346 344 340 339 338 337 339 339 339 339 338 332 332
306 308 307 305 302 302 302 304 304 303 303 304 303 304 304 301 299 299 300 303 305 304 305 308 326 339 340 343 343 344 343 342 339 339 341 344 345 343 341 340 338 338 340 339 338 338 336 332 332
303 307 306 305 303 302 302 301 302 302 303 301 303 306 303 300 298 298 299 299 301 302 303 305 313 327 338 339 342 342 344 343 341 339 339 340 340 341 341 341 340 338 339 339 338 337 339 333 332
302 306 304 300 301 301 297 297 297 296 297 298 301 300 300 298 297 297 298 298 299 300 300 302 304 307 314 337 339 340 341 341 343 341 339 338 339 339 339 340 340 339 339 340 338 336 336 335 332
303 304 300 300 296 296 295 295 294 293 293 293 294 295 296 296 295 295 296 295 296 298 299 300 302 303 307 330 335 340 341 340 340 342 341 339 338 338 337 336 337 339 340 339 338 335 335 334 333
293 298 294 294 294 294 293 291 291 292 291 291 292 292 292 293 293 294 293 294 295 295 298 299 300 302 305 310 332 336 339 340 340 341 341 340 338 336 335 335 336 337 338 339 337 334 334 332 333
293 293 293 294 292 292 291 291 291 291 291 291 291 291 292 292 293 293 293 293 293 295 296 297 299 300 303 304 316 331 337 337 338 339 338 339 338 337 336 336 336 337 337 337 336 334 334 331 332
292 291 291 291 291 291 291 291 291 291 291 291 292 292 292 292 292 292 292 292 293 294 295 295 296 299 301 303 306 328 333 335 336 337 338 338 338 337 336 336 336 336 337 336 335 332 333 330 330
291 291 291 291 291 291 291 291 291 292 292 292 292 292 292 292 292 292 292 292 293 293 294 294 295 297 301 303 305 315 331 334 334 336 337 337 338 337 336 336 335 334 335 335 335 332 331 328 328
291 291 291 291 291 291 291 292 291 292 292 292 292 292 292 292 292 292 292 292 293 293 294 294 295 298 301 302 304 309 324 330 333 336 336 336 337 337 336 335 333 332 332 334 331 329 326 324 325
291 291 292 291 291 291 291 292 292 292 292 292 292 292 292 293 293 293 293 293 293 293 294 295 296 298 300 302 303 307 322 329 330 334 335 336 336 336 335 333 329 327 328 329 327 325 319 318 320
291 292 291 292 291 291 291 292 292 292 292 292 293 293 293 294 294 293 293 293 293 293 293 294 296 299 300 300 302 303 312 327 330 332 334 334 335 334 333 330 325 323 322 323 320 312 313 309 309
289 291 291 291 291 291 291 291 291 292 292 292 292 293 292 293 294 294 294 294 293 293 293 293 294 296 298 300 301 302 308 323 328 330 331 332 332 333 330 326 323 321 320 315 306 304 303 303 304
290 291 291 291 291 292 292 292 291 292 291 291 291 291 290 291 291 291 292 292 293 293 293 293 293 294 297 299 302 305 312 325 328 329 330 330 330 328 326 323 318 317 315 311 304 303 303 301 300
291 292 292 292 292 291 292 292 292 291 290 290 290 289 289 289 289 289 290 291 291 291 292 292 293 294 297 298 300 304 311 325 326 327 329 330 328 328 324 321 316 315 309 304 305 302 301 301 300
292 293 293 293 292 291 291 291 290 290 290 289 289 288 288 288 288 288 289 289 290 291 291 291 292 293 296 298 301 304 307 322 326 326 327 327 328 325 324 317 314 314 311 308 307 304 302 301 300
292 291 292 292 291 290 290 291 290 290 291 289 288 288 287 287 287 287 287 287 288 290 291 291 291 292 294 297 300 303 310 320 324 324 325 324 323 323 321 318 313 311 313 310 304 303 305 302 301
289 290 290 290 290 290 288 290 289 289 290 288 288 287 286 286 286 285 286 286 287 288 290 290 291 291 293 296 300 305 310 319 322 323 322 322 322 321 318 317 314 311 308 307 306 303 302 302 302
289 286 288 279 280 284 285 290 290 289 289 287 286 286 285 284 284 284 285 285 286 288 290 289 291 293 292 294 300 308 313 319 320 322 321 319 319 319 317 317 315 315 310 308 306 304 302 302 302
280 280 281 281 279 285 287 290 290 288 287 286 285 285 284 284 283 283 284 285 286 288 290 290 291 295 297 295 299 307 313 319 319 320 319 318 316 315 314 314 312 311 313 307 305 302 301 301 301
280 282 289 290 284 289 289 288 289 287 287 287 285 284 283 283 283 283 283 284 285 285 289 289 290 293 296 300 301 308 308 318 320 320 318 317 315 314 314 313 311 310 307 306 303 302 301 301 300
279 286 287 291 272 282 284 287 288 289 288 286 284 284 282 282 282 282 282 283 284 285 287 288 290 291 295 299 306 312 311 318 318 318 316 315 314 314 314 313 311 309 309 304 303 302 301 300 300
285 288 287 288 287 284 284 287 287 285 285 285 282 283 282 281 281 281 282 282 282 283 286 287 289 290 293 298 308 313 315 317 318 316 316 315 315 316 315 314 310 308 308 308 306 304 302 302 302
281 283 290 293 287 286 287 287 280 281 282 283 282 282 281 281 280 280 281 281 281 282 283 285 287 288 291 297 307 314 316 316 317 316 315 314 312 312 312 314 316 309 308 310 307 306 305 305 304
282 282 290 292 289 287 290 289 279 281 283 284 282 281 281 280 280 280 279 280 280 281 281 282 285 286 289 292 300 304 314 315 315 314 314 314 313 312 311 310 312 314 311 311 309 308 304 304 304
Wind_Speed
8 3 2 3 2 2 5 8 3 5 3 4 5 4 9 4 5 4 6 27 26 20 18 14 22 31 36 40 39 41 41 39 38 37 38 38 37 36 36 34 34 32 30 27 27 25 25 23 21
4 1 3 2 3 3 9 8 12 12 6 2 2 3 3 7 4 10 5 37 36 29 25 15 21 29 34 39 40 40 42 41 39 37 38 40 39 38 38 35 35 33 31 27 27 26 25 24 24
2 1 3 3 4 13 14 7 12 6 9 2 4 2 3 3 3 7 29 37 37 37 34 22 18 29 33 36 39 40 39 42 39 37 38 41 40 39 39 36 35 34 31 29 26 26 26 26 25
3 3 3 3 17 21 13 5 3 1 1 2 1 7 4 6 3 17 32 35 36 38 36 27 17 30 32 37 40 40 37 41 40 37 37 40 42 40 39 37 36 35 33 30 29 27 28 27 27
3 2 3 5 18 21 5 2 2 2 3 4 2 5 6 6 17 28 37 35 37 35 37 27 19 23 33 37 41 42 40 42 43 39 36 37 42 42 40 39 37 35 34 32 31 29 28 29 29
2 1 1 11 24 25 1 3 3 5 6 4 4 7 16 6 25 37 40 41 40 39 35 29 22 18 30 35 40 42 43 42 47 44 40 37 40 42 42 41 39 37 35 34 32 30 29 31 31
4 3 7 9 21 16 2 3 3 3 4 2 11 6 3 7 29 34 39 44 44 41 36 32 24 22 28 32 37 40 44 44 46 48 44 41 41 43 44 42 40 39 37 35 33 32 30 32 31
3 3 5 5 17 22 3 6 2 5 4 12 5 5 4 10 33 37 36 35 40 41 35 31 29 26 26 35 35 38 42 43 45 47 48 46 44 43 44 42 41 41 40 38 34 32 30 32 32
2 1 8 6 5 10 7 10 2 2 12 7 6 13 16 30 31 42 42 42 41 43 33 38 35 33 32 30 36 38 40 42 44 46 47 47 44 44 44 43 43 43 43 40 36 33 32 33 33
3 4 7 5 1 5 12 5 11 8 18 24 18 20 25 26 29 25 27 33 37 43 46 36 39 39 33 26 32 35 40 43 43 44 46 45 45 46 46 45 45 45 43 42 37 35 34 35 35
2 6 3 3 2 3 12 15 4 6 18 16 19 23 20 24 22 24 27 29 33 40 42 39 38 42 35 32 30 32 35 36 39 43 41 48 45 44 46 46 45 44 43 41 38 38 37 38 38
4 7 8 4 2 6 12 11 9 14 25 17 21 23 24 21 18 19 24 30 33 34 42 40 37 40 40 36 28 32 32 36 34 37 43 40 42 40 45 42 43 42 42 40 42 42 40 40 39
6 5 8 9 13 9 8 15 19 23 23 22 22 20 22 20 19 25 30 32 34 36 39 42 37 38 40 40 36 30 33 35 36 37 37 39 38 38 43 43 41 41 43 46 47 45 41 41 40
2 7 14 14 20 14 12 17 13 20 24 24 18 18 18 19 19 26 28 30 31 36 39 42 39 38 36 40 37 31 34 34 36 39 36 41 39 37 36 38 42 43 51 49 49 47 44 42 40
4 7 13 20 15 8 2 13 17 27 26 18 19 21 22 24 26 22 30 32 33 35 40 39 39 35 34 36 36 33 32 34 33 35 39 37 41 39 39 38 41 47 50 52 50 45 44 42 40
3 2 6 16 2 4 9 21 26 23 19 20 24 22 20 24 25 34 34 34 35 36 35 39 39 37 35 36 39 34 30 35 34 36 36 40 39 42 41 41 38 44 50 53 49 48 45 43 42
4 6 9 15 8 6 8 15 21 26 14 21 26 25 22 24 24 30 32 34 34 37 38 38 37 36 36 39 38 36 32 34 35 35 34 38 44 40 42 43 38 44 47 48 49 43 46 42 40
8 6 11 15 7 7 20 28 28 30 17 23 23 21 20 20 21 26 29 33 33 34 35 35 34 38 39 39 40 35 31 33 36 36 35 37 40 46 43 40 45 49 47 46 35 34 32 36 39
12 16 21 24 21 17 24 24 30 22 16 21 11 6 9 11 13 21 21 22 27 33 35 40 38 39 38 34 29 26 27 30 32 35 37 39 39 41 40 44 43 46 48 49 43 33 33 26 29
15 20 24 23 18 10 19 28 26 23 15 6 2 5 9 13 15 15 21 21 23 25 29 36 36 37 36 35 34 27 23 28 33 31 36 39 39 44 40 44 46 46 40 38 51 37 30 28 30
16 17 19 20 20 13 19 18 17 5 5 2 1 5 8 12 16 17 16 22 25 26 28 30 35 36 37 34 33 31 26 26 27 31 34 39 42 43 45 42 43 48 45 50 55 54 34 31 33
15 8 14 14 13 8 5 11 31 8 5 3 9 10 13 16 17 17 19 20 24 29 29 31 33 33 33 35 31 30 24 22 26 29 32 36 41 44 46 44 42 41 50 47 45 49 48 34 33
9 7 11 16 16 12 6 6 5 4 4 5 10 15 14 15 17 19 19 24 30 31 27 28 29 33 34 32 29 26 26 27 22 29 29 30 37 39 40 45 43 44 40 46 51 43 40 41 41
6 5 12 4 2 0 5 8 13 3 2 6 11 13 16 16 17 18 21 26 26 28 21 22 23 24 30 31 30 29 27 27 21 30 30 29 30 34 34 39 43 44 32 43 46 47 45 43 42
7 6 4 5 3 5 4 8 13 2 2 4 11 14 14 15 15 17 18 18 21 25 22 20 21 19 22 28 29 29 29 30 31 26 30 28 27 28 32 35 37 38 42 36 37 42 42 38 36
2 6 2 6 3 15 10 6 5 5 3 9 11 15 15 16 16 17 18 17 17 24 22 19 21 20 19 21 28 30 30 30 27 31 28 29 30 33 33 34 35 38 31 38 32 33 33 33 34
4 4 5 5 1 3 3 7 5 7 12 15 15 17 17 17 17 18 19 17 19 22 22 18 17 18 18 19 25 28 30 29 29 26 32 32 30 33 33 34 33 35 40 31 35 29 29 32 32
5 1 4 1 5 6 5 6 5 5 11 14 13 14 15 16 17 17 16 16 21 24 22 18 13 13 13 14 23 29 30 30 31 31 28 31 34 33 31 28 30 34 37 39 34 31 31 30 30
3 2 4 4 2 3 5 5 5 4 7 11 13 14 14 15 15 15 16 17 22 26 24 21 17 14 9 3 13 29 26 25 32 30 27 29 29 34 38 35 27 28 29 29 32 36 37 39 36
4 6 4 2 4 5 7 15 5 5 5 7 12 13 14 14 15 14 15 14 20 23 25 24 19 18 17 13 20 23 27 25 29 28 29 29 30 29 33 34 36 32 31 31 36 32 37 38 34
Wind_Direction
345 337 155 58 99 62 244 235 198 204 206 206 155 170 204 208 177 208 76 11 360 344 322 277 231 201 200 197 198 198 196 194 193 193 193 193 188 183 182 178 175 172 167 163 158 162 160 156 153
350 70 58 78 136 215 246 188 214 208 195 130 221 202 235 250 272 286 20 348 352 349 337 304 241 205 203 199 199 199 198 196 195 196 195 195 192 186 184 181 179 175 170 168 162 167 164 162 157
106 123 113 157 199 230 250 170 220 230 247 255 309 232 229 237 269 333 351 353 350 351 348 323 257 210 207 202 199 201 201 198 198 197 196 195 194 191 186 185 182 177 172 170 171 173 170 168 161
151 32 31 173 233 246 246 97 106 49 348 219 222 271 289 230 320 7 346 345 346 347 345 331 283 222 214 206 200 200 202 200 199 198 197 196 195 194 189 186 185 181 175 171 175 178 173 169 165
57 67 194 241 246 257 231 150 111 207 268 209 158 258 252 7 347 344 349 342 344 340 346 330 297 239 221 213 205 200 200 201 199 199 198 195 196 194 192 189 186 184 179 177 177 180 171 172 169
82 103 192 233 241 248 287 193 198 215 222 279 243 240 260 48 6 346 343 336 338 335 338 345 307 262 232 223 212 205 202 202 202 201 199 198 196 195 194 191 188 186 183 180 180 181 175 175 172
146 148 235 258 258 279 56 30 350 15 334 329 317 261 270 24 352 344 338 329 325 328 336 340 328 286 247 231 222 214 207 205 204 203 200 199 197 196 195 193 190 188 186 186 185 179 180 179 177
129 153 258 245 263 277 356 5 53 41 289 327 338 264 300 332 330 328 325 325 321 323 326 336 342 325 276 244 230 224 216 210 207 205 203 202 202 201 198 195 193 191 189 186 185 179 176 182 180
102 245 255 252 224 261 27 2 351 313 280 260 269 279 293 307 320 320 319 318 319 315 320 322 324 326 321 262 239 230 226 217 211 209 206 205 203 204 204 199 195 193 191 188 188 183 179 183 181
167 218 236 206 26 303 309 316 315 306 292 282 289 280 288 301 308 304 305 305 306 305 305 313 311 315 320 290 247 235 232 226 218 211 209 205 203 203 204 203 198 195 193 191 189 184 183 183 178
237 236 331 298 287 298 300 296 225 280 282 279 284 291 289 288 290 290 288 285 288 292 293 296 301 303 314 309 259 240 234 230 221 217 211 206 203 206 206 204 201 197 196 190 187 184 186 185 181
271 259 248 237 246 292 283 295 285 261 266 278 272 273 282 280 277 274 278 283 284 284 283 287 291 294 298 306 300 246 238 231 226 224 219 211 204 202 205 202 197 193 193 182 184 187 187 185 184
224 257 261 268 283 259 269 290 285 286 281 274 268 277 282 282 279 276 275 275 279 279 280 280 282 284 288 295 295 263 240 234 233 228 224 216 210 202 200 200 193 189 187 187 190 188 186 185 184
266 310 307 309 298 296 297 292 323 280 278 279 298 289 278 273 269 273 271 268 267 272 275 279 274 273 277 283 289 278 246 235 232 231 228 219 210 206 201 193 190 188 190 192 192 186 186 184 182
308 312 308 281 273 282 123 288 265 266 272 288 283 280 279 278 277 261 261 264 267 267 272 272 275 266 266 270 282 277 258 238 229 226 225 222 209 202 201 194 189 188 188 193 188 186 183 181 180
276 221 270 270 46 233 166 269 266 268 274 284 279 274 273 269 266 268 265 260 261 264 263 269 270 262 257 264 271 276 262 238 231 228 222 219 212 202 195 194 191 184 186 189 186 182 178 178 177
222 254 235 281 192 241 191 263 259 264 286 280 274 275 275 275 272 267 269 266 261 263 266 265 263 260 256 257 263 270 267 244 231 224 215 218 216 202 193 191 185 184 182 182 182 173 174 170 171
258 226 257 259 262 306 279 271 272 272 273 266 271 276 280 283 286 293 279 272 267 260 261 264 269 265 257 251 254 266 268 247 228 220 219 215 204 202 195 185 185 184 179 175 167 160 161 159 163
270 270 268 273 278 270 270 271 268 279 276 274 295 337 325 313 314 320 330 324 289 266 260 263 265 260 252 251 247 254 257 233 220 214 211 211 207 192 188 184 180 180 178 172 164 167 149 143 160
247 260 269 277 277 268 284 277 279 280 268 179 271 310 311 311 316 313 316 314 302 299 288 267 259 258 251 242 239 240 253 227 216 208 201 201 194 199 194 187 180 181 167 158 159 156 154 154 170
257 258 272 271 295 289 274 282 275 262 166 157 291 281 299 306 314 314 311 307 301 291 289 283 264 254 251 247 238 235 251 230 206 193 189 195 204 198 193 193 181 178 170 168 169 166 174 157 181
277 246 262 284 305 285 65 295 292 292 204 358 344 327 325 322 315 311 307 302 296 290 287 285 271 253 256 249 240 232 232 221 215 200 192 187 184 191 194 192 181 175 174 171 171 170 171 164 179
242 329 287 284 281 296 256 227 272 126 232 329 321 322 317 311 310 309 305 300 298 292 283 285 283 253 252 247 240 226 225 222 217 188 185 182 181 183 184 186 185 176 174 174 174 169 171 176 181
335 343 314 37 71 286 241 195 288 279 283 303 315 316 315 314 313 306 302 301 301 294 283 291 285 264 252 248 237 221 218 211 202 173 176 172 174 179 187 188 186 187 178 181 178 174 178 183 190
50 41 325 347 354 230 284 293 263 168 252 280 314 321 321 318 315 312 312 311 308 310 297 294 283 275 263 247 235 219 218 204 195 180 167 164 162 163 179 184 180 185 189 188 181 180 181 187 188
207 158 207 288 278 295 283 239 266 187 183 344 336 324 325 328 325 320 316 312 309 311 305 293 280 275 275 260 237 214 213 200 185 180 170 170 168 166 177 182 182 180 178 183 183 185 188 192 194
266 202 205 270 109 358 264 285 265 234 346 345 333 331 334 326 326 324 321 318 317 318 310 300 291 283 271 263 237 203 196 191 177 173 170 163 165 166 181 189 182 178 186 180 179 180 186 192 192
174 277 336 276 304 304 280 279 251 311 329 326 324 329 323 323 330 327 326 324 329 330 317 319 324 299 281 264 228 184 179 187 174 167 165 161 172 168 184 182 184 177 185 191 198 197 202 194 203
348 312 243 254 155 258 303 265 207 239 291 313 325 334 328 329 330 328 330 333 338 338 335 340 352 344 5 63 177 155 165 167 164 160 166 170 171 168 172 179 175 193 191 186 195 195 200 204 210
190 216 230 269 308 257 267 283 182 217 273 330 331 331 332 334 331 334 337 339 350 343 347 351 352 8 15 51 101 115 143 154 153 155 168 176 179 176 173 175 174 177 192 190 194 194 197 195 204